Regional Weather Roundup
Issued by NWS

Home | Current Version | Previous Version | Text Only | Print | Product List | Glossary On
Versions: 1 2 3 4 5 6 7 8 9 10 11 12 13 14 15 16 17 18 19 20 21 22 23 24 25 26 27 28 29 30 31 32 33 34 35 36 37 38 39 40 41 42 43 44 45 46 47 48 49 50
000
ASUS43 KTOP 180808
RWRKS

WEATHER ROUNDUP FOR KANSAS
NATIONAL WEATHER SERVICE GOODLAND KS
200 AM CST THU JAN 18 2018

NOTE:  "FAIR" INDICATES FEW OR NO CLOUDS BELOW 12,000 FEET WITH NO
SIGNIFICANT WEATHER AND/OR OBSTRUCTIONS TO VISIBILITY.

KSZ001>006-013>018-027>032-041>047-180900-
NORTHWEST KANSAS

CITY           SKY/WX    TMP DP  RH WIND       PRES   REMARKS
GOODLAND       CLEAR     22  13  68 W12       30.17S WCI  10
HAYS           CLOUDY    16   7  67 CALM      30.22F
HILL CITY      CLOUDY    18  10  71 SW6       30.19F
RUSSELL        CLOUDY    19  10  68 S14       30.21F WCI   6
$$

KSZ061>065-074>080-084>089-180900-
SOUTHWEST KANSAS

CITY           SKY/WX    TMP DP  RH WIND       PRES   REMARKS
DODGE CITY     CLOUDY    22   8  55 SW12      30.22F WCI  10
ELKHART        CLEAR     30  16  56 W13       30.21S WCI  20
GARDEN CITY    CLOUDY    14   5  67 W8        30.20F
GREAT BEND     CLOUDY    22   8  55 S13       30.24F WCI  10
LIBERAL        CLOUDY    19  10  68 W8        30.23F
PRATT          CLOUDY    19   2  47 S13       30.28F WCI   6
$$

KSZ066>073-081>083-090>101-180900-
SOUTHEAST KANSAS

CITY           SKY/WX    TMP DP  RH WIND       PRES   REMARKS
CHANUTE          N/A    N/A N/A N/A MISG      30.42F
COFFEYVILLE    CLOUDY    17   9  70 S10       30.46F WCI   5
HUTCHINSON     CLOUDY    20   7  57 S8        30.30F
MEDICINE LODGE   N/A     19   3  49 SE6       30.33F
NEWTON         CLOUDY    21   9  59 S17       30.32F WCI   7
PARSONS        CLOUDY    15   8  73 S5        30.45F
WICHITA INTL   CLOUDY    19   8  62 S13       30.35F WCI   6
WICHITA JABRA  CLOUDY    22   8  55 S15G24    30.34F WCI   9
WICHITA MCCONL CLOUDY    21   5  51 SW14      30.35F WCI   8
WINFIELD       CLOUDY    20   8  60 S10       30.40F WCI   9
$$

KSZ007>012-019>026-033>040-048>060-102>105-180900-
NORTHEAST KANSAS

CITY           SKY/WX    TMP DP  RH WIND       PRES   REMARKS
CONCORDIA      CLOUDY    21   9  59 SW14      30.23F WCI   8
EMPORIA        CLOUDY    16   8  71 S5        30.35F
LAWRENCE       CLOUDY    19   8  62 CALM      30.36F
MANHATTAN      CLOUDY    22   9  57 SW9       30.31F
MARYSVILLE     CLEAR     21  10  63 S10       30.26F WCI  10
OLATHE IND     CLOUDY    19   9  65 SW16      30.36F WCI   4
OLATHE EXE     CLOUDY    13   8  81 S7        30.36F
SALINA         CLEAR     22  10  60 S15       30.28F WCI   9
TOPEKA BILLARD CLOUDY    21  10  62 SW5       30.35F
TOPEKA FORBES  CLEAR     19   9  65 S12       30.33F WCI   7
$$




USA.gov is the U.S. government's official web portal to all federal, state and local government web resources and services.